Data supplied by UK-AIR on 14/3/2019
All Data GMT hour ending 
Status: R =Ratified P=Provisional,P*=As supplied
,,Blackburn Accrington Road,,,,,,,,,,,,,,,,,,,,,,,
Date,time,"Nitric oxide",status,unit,"Nitrogen dioxide",status,unit,"Nitrogen oxides as nitrogen dioxide",status,unit
 
01-01-2018,01:00,2.17163,R,ugm-3,6.08646,R,ugm-3,9.41625,R,ugm-3
01-01-2018,02:00,1.99066,R,ugm-3,6.15313,R,ugm-3,9.20544,R,ugm-3
01-01-2018,03:00,1.56086,R,ugm-3,3.45674,R,ugm-3,5.85002,R,ugm-3
01-01-2018,04:00,1.86624,R,ugm-3,2.61957,R,ugm-3,5.48110,R,ugm-3
01-01-2018,05:00,1.66266,R,ugm-3,1.56146,R,ugm-3,4.11083,R,ugm-3
01-01-2018,06:00,1.42513,R,ugm-3,1.97836,R,ugm-3,4.16353,R,ugm-3
01-01-2018,07:00,1.86624,R,ugm-3,4.14795,R,ugm-3,7.00949,R,ugm-3
01-01-2018,08:00,1.66266,R,ugm-3,5.14525,R,ugm-3,7.69462,R,ugm-3
01-01-2018,09:00,2.20556,R,ugm-3,7.68579,R,ugm-3,11.06761,R,ugm-3
01-01-2018,10:00,2.20556,R,ugm-3,5.99930,R,ugm-3,9.38112,R,ugm-3
01-01-2018,11:00,3.42710,R,ugm-3,9.76550,R,ugm-3,15.02032,R,ugm-3
01-01-2018,12:00,4.58078,R,ugm-3,11.47495,R,ugm-3,18.49871,R,ugm-3
01-01-2018,13:00,4.10574,R,ugm-3,10.41144,R,ugm-3,16.70682,R,ugm-3
01-01-2018,14:00,3.49497,R,ugm-3,9.39794,R,ugm-3,14.75681,R,ugm-3
01-01-2018,15:00,3.52890,R,ugm-3,11.08510,R,ugm-3,16.49600,R,ugm-3
01-01-2018,16:00,3.29138,R,ugm-3,8.81415,R,ugm-3,13.86086,R,ugm-3
01-01-2018,17:00,5.05583,R,ugm-3,11.27359,R,ugm-3,19.02574,R,ugm-3
01-01-2018,18:00,5.90412,R,ugm-3,10.60532,R,ugm-3,19.65818,R,ugm-3
01-01-2018,19:00,6.34523,R,ugm-3,11.87897,R,ugm-3,21.60818,R,ugm-3
01-01-2018,20:00,5.53087,R,ugm-3,13.91818,R,ugm-3,22.39873,R,ugm-3
01-01-2018,21:00,4.61471,R,ugm-3,10.73778,R,ugm-3,17.81358,R,ugm-3
01-01-2018,22:00,2.78240,R,ugm-3,9.06754,R,ugm-3,13.33383,R,ugm-3
01-01-2018,23:00,2.47702,R,ugm-3,7.95471,R,ugm-3,11.75274,R,ugm-3
01-01-2018,24:00,2.88420,R,ugm-3,5.85469,R,ugm-3,10.27706,R,ugm-3
02-01-2018,01:00,1.99130,R,ugm-3,4.03935,R,ugm-3,7.09264,R,ugm-3
02-01-2018,02:00,1.53873,R,ugm-3,5.57597,R,ugm-3,7.93533,R,ugm-3
02-01-2018,03:00,1.35771,R,ugm-3,2.76368,R,ugm-3,4.84547,R,ugm-3
02-01-2018,04:00,1.76502,R,ugm-3,3.82452,R,ugm-3,6.53085,R,ugm-3
02-01-2018,05:00,1.76502,R,ugm-3,5.14122,R,ugm-3,7.84755,R,ugm-3
02-01-2018,06:00,3.69975,R,ugm-3,11.97094,R,ugm-3,17.64382,R,ugm-3
02-01-2018,07:00,3.29244,R,ugm-3,14.22819,R,ugm-3,19.27653,R,ugm-3
02-01-2018,08:00,10.25069,R,ugm-3,32.21047,R,ugm-3,47.92798,R,ugm-3
02-01-2018,09:00,11.77811,R,ugm-3,34.97727,R,ugm-3,53.03678,R,ugm-3
02-01-2018,10:00,10.65800,R,ugm-3,37.43210,R,ugm-3,53.77414,R,ugm-3
02-01-2018,11:00,13.64495,R,ugm-3,33.37885,R,ugm-3,54.30082,R,ugm-3
02-01-2018,12:00,7.39950,R,ugm-3,23.30987,R,ugm-3,34.65561,R,ugm-3
02-01-2018,13:00,9.19846,R,ugm-3,28.92573,R,ugm-3,43.02984,R,ugm-3
02-01-2018,14:00,8.45173,R,ugm-3,19.64243,R,ugm-3,32.60156,R,ugm-3
02-01-2018,15:00,8.85904,R,ugm-3,23.28401,R,ugm-3,36.86767,R,ugm-3
02-01-2018,16:00,6.34728,R,ugm-3,24.29124,R,ugm-3,34.02360,R,ugm-3
02-01-2018,17:00,17.03922,R,ugm-3,38.12865,R,ugm-3,64.25509,R,ugm-3
02-01-2018,18:00,10.99743,R,ugm-3,32.32953,R,ugm-3,49.19201,R,ugm-3
02-01-2018,19:00,8.34990,R,ugm-3,21.43127,R,ugm-3,34.23427,R,ugm-3
02-01-2018,20:00,7.33162,R,ugm-3,18.83183,R,ugm-3,30.07349,R,ugm-3
02-01-2018,21:00,4.14101,R,ugm-3,10.87302,R,ugm-3,17.22247,R,ugm-3
02-01-2018,22:00,2.47782,R,ugm-3,4.52230,R,ugm-3,8.32156,R,ugm-3
02-01-2018,23:00,2.44387,R,ugm-3,3.99499,R,ugm-3,7.74221,R,ugm-3
02-01-2018,24:00,1.56136,R,ugm-3,2.92542,R,ugm-3,5.31948,R,ugm-3
03-01-2018,01:00,1.67505,R,ugm-3,2.20372,R,ugm-3,4.77209,R,ugm-3
03-01-2018,02:00,1.08652,R,ugm-3,4.86056,R,ugm-3,6.52653,R,ugm-3
03-01-2018,03:00,1.29024,R,ugm-3,1.70600,R,ugm-3,3.68433,R,ugm-3
03-01-2018,04:00,1.08652,R,ugm-3,0.86043,R,ugm-3,2.52640,R,ugm-3
03-01-2018,05:00,1.32419,R,ugm-3,1.54867,R,ugm-3,3.57907,R,ugm-3
03-01-2018,06:00,2.47862,R,ugm-3,1.67338,R,ugm-3,5.47387,R,ugm-3
03-01-2018,07:00,3.25955,R,ugm-3,2.73919,R,ugm-3,7.73710,R,ugm-3
03-01-2018,08:00,4.54979,R,ugm-3,4.97152,R,ugm-3,11.94776,R,ugm-3
03-01-2018,09:00,5.80607,R,ugm-3,7.78225,R,ugm-3,16.68476,R,ugm-3
03-01-2018,10:00,5.97584,R,ugm-3,8.25881,R,ugm-3,17.42163,R,ugm-3
03-01-2018,11:00,6.14561,R,ugm-3,8.78800,R,ugm-3,18.21113,R,ugm-3
03-01-2018,12:00,7.16422,R,ugm-3,9.64729,R,ugm-3,20.63226,R,ugm-3
03-01-2018,13:00,6.96049,R,ugm-3,9.69649,R,ugm-3,20.36910,R,ugm-3
03-01-2018,14:00,7.97910,R,ugm-3,13.08218,R,ugm-3,25.31663,R,ugm-3
03-01-2018,15:00,6.24747,R,ugm-3,15.05308,R,ugm-3,24.63240,R,ugm-3
03-01-2018,16:00,7.23212,R,ugm-3,17.12236,R,ugm-3,28.21146,R,ugm-3
03-01-2018,17:00,6.48514,R,ugm-3,17.05715,R,ugm-3,27.00090,R,ugm-3
03-01-2018,18:00,7.13026,R,ugm-3,14.85741,R,ugm-3,25.79033,R,ugm-3
03-01-2018,19:00,4.75351,R,ugm-3,10.81725,R,ugm-3,18.10586,R,ugm-3
03-01-2018,20:00,3.70095,R,ugm-3,8.90473,R,ugm-3,14.57943,R,ugm-3
03-01-2018,21:00,3.32746,R,ugm-3,8.00367,R,ugm-3,13.10570,R,ugm-3
03-01-2018,22:00,2.58048,R,ugm-3,7.78056,R,ugm-3,11.73723,R,ugm-3
03-01-2018,23:00,2.47862,R,ugm-3,6.09458,R,ugm-3,9.89507,R,ugm-3
03-01-2018,24:00,2.00326,R,ugm-3,4.61284,R,ugm-3,7.68447,R,ugm-3
04-01-2018,01:00,1.58501,R,ugm-3,5.42440,R,ugm-3,7.85472,R,ugm-3
04-01-2018,02:00,1.35858,R,ugm-3,5.77158,R,ugm-3,7.85472,R,ugm-3
04-01-2018,03:00,1.46048,R,ugm-3,3.02049,R,ugm-3,5.25986,R,ugm-3
04-01-2018,04:00,1.46048,R,ugm-3,2.65230,R,ugm-3,4.89166,R,ugm-3
04-01-2018,05:00,1.29065,R,ugm-3,4.85883,R,ugm-3,6.83781,R,ugm-3
04-01-2018,06:00,3.80403,R,ugm-3,9.26301,R,ugm-3,15.09578,R,ugm-3
04-01-2018,07:00,5.97777,R,ugm-3,20.44720,R,ugm-3,29.61298,R,ugm-3
04-01-2018,08:00,9.88369,R,ugm-3,26.45066,R,ugm-3,41.60545,R,ugm-3
04-01-2018,09:00,17.86537,R,ugm-3,28.25607,R,ugm-3,55.64926,R,ugm-3
04-01-2018,10:00,12.29518,R,ugm-3,21.75373,R,ugm-3,40.60607,R,ugm-3
04-01-2018,11:00,9.54405,R,ugm-3,25.65648,R,ugm-3,40.29048,R,ugm-3
04-01-2018,12:00,16.91436,R,ugm-3,37.65664,R,ugm-3,63.59164,R,ugm-3
04-01-2018,13:00,10.97056,R,ugm-3,27.88747,R,ugm-3,44.70876,R,ugm-3
04-01-2018,14:00,8.52511,R,ugm-3,19.96023,R,ugm-3,33.03189,R,ugm-3
04-01-2018,15:00,6.14759,R,ugm-3,16.45231,R,ugm-3,25.87848,R,ugm-3
04-01-2018,16:00,8.15150,R,ugm-3,13.53749,R,ugm-3,26.03628,R,ugm-3
04-01-2018,17:00,15.04631,R,ugm-3,23.68942,R,ugm-3,46.76010,R,ugm-3
04-01-2018,18:00,12.09139,R,ugm-3,21.06683,R,ugm-3,39.60670,R,ugm-3
04-01-2018,19:00,9.57801,R,ugm-3,17.39903,R,ugm-3,32.08511,R,ugm-3
04-01-2018,20:00,8.01564,R,ugm-3,16.63872,R,ugm-3,28.92920,R,ugm-3
04-01-2018,21:00,4.85694,R,ugm-3,12.01426,R,ugm-3,19.46146,R,ugm-3
04-01-2018,22:00,4.61918,R,ugm-3,12.58921,R,ugm-3,19.67186,R,ugm-3
04-01-2018,23:00,4.72108,R,ugm-3,18.37661,R,ugm-3,25.61549,R,ugm-3
04-01-2018,24:00,2.44545,R,ugm-3,12.87150,R,ugm-3,16.62114,R,ugm-3
05-01-2018,01:00,2.21974,R,ugm-3,9.98269,R,ugm-3,13.38624,R,ugm-3
05-01-2018,02:00,1.40432,R,ugm-3,13.12527,R,ugm-3,15.27853,R,ugm-3
05-01-2018,03:00,1.59685,R,ugm-3,12.63733,R,ugm-3,15.08580,R,ugm-3
05-01-2018,04:00,1.49492,R,ugm-3,9.85004,R,ugm-3,12.14223,R,ugm-3
05-01-2018,05:00,2.48022,R,ugm-3,15.69821,R,ugm-3,19.50115,R,ugm-3
05-01-2018,06:00,3.80526,R,ugm-3,21.23569,R,ugm-3,27.07034,R,ugm-3
05-01-2018,07:00,3.77129,R,ugm-3,19.18523,R,ugm-3,24.96779,R,ugm-3
05-01-2018,08:00,8.62979,R,ugm-3,27.29450,R,ugm-3,40.52666,R,ugm-3
05-01-2018,09:00,35.84420,R,ugm-3,59.62866,R,ugm-3,114.58900,R,ugm-3
05-01-2018,10:00,28.91319,R,ugm-3,58.95486,R,ugm-3,103.28779,R,ugm-3
05-01-2018,11:00,12.63890,R,ugm-3,38.38819,R,ugm-3,57.76757,R,ugm-3
05-01-2018,12:00,17.36150,R,ugm-3,31.62005,R,ugm-3,58.24065,R,ugm-3
05-01-2018,13:00,24.25854,R,ugm-3,38.65360,R,ugm-3,75.84951,R,ugm-3
05-01-2018,14:00,38.39236,R,ugm-3,48.04722,R,ugm-3,106.91469,R,ugm-3
05-01-2018,15:00,32.88832,R,ugm-3,48.33925,R,ugm-3,98.76731,R,ugm-3
05-01-2018,16:00,47.90551,R,ugm-3,64.26296,R,ugm-3,137.71705,R,ugm-3
05-01-2018,17:00,44.10025,R,ugm-3,72.77836,R,ugm-3,140.39781,R,ugm-3
05-01-2018,18:00,88.64219,R,ugm-3,83.90552,R,ugm-3,219.82165,R,ugm-3
05-01-2018,19:00,114.46360,R,ugm-3,87.94116,R,ugm-3,263.44957,R,ugm-3
05-01-2018,20:00,172.52780,R,ugm-3,95.36513,R,ugm-3,359.90407,R,ugm-3
05-01-2018,21:00,79.26494,R,ugm-3,77.52108,R,ugm-3,199.05896,R,ugm-3
05-01-2018,22:00,87.55497,R,ugm-3,73.16752,R,ugm-3,207.41660,R,ugm-3
05-01-2018,23:00,115.48287,R,ugm-3,70.29380,R,ugm-3,247.36506,R,ugm-3
05-01-2018,24:00,46.13879,R,ugm-3,57.72068,R,ugm-3,128.46583,R,ugm-3
06-01-2018,01:00,67.92768,R,ugm-3,59.38590,R,ugm-3,163.54022,R,ugm-3
06-01-2018,02:00,19.93875,R,ugm-3,48.50131,R,ugm-3,79.07362,R,ugm-3
06-01-2018,03:00,1.59737,R,ugm-3,14.62266,R,ugm-3,17.07192,R,ugm-3
06-01-2018,04:00,1.35946,R,ugm-3,2.22290,R,ugm-3,4.30738,R,ugm-3
06-01-2018,05:00,0.95162,R,ugm-3,1.27237,R,ugm-3,2.73151,R,ugm-3
06-01-2018,06:00,1.35946,R,ugm-3,2.59060,R,ugm-3,4.67508,R,ugm-3
06-01-2018,07:00,1.25750,R,ugm-3,5.00569,R,ugm-3,6.93383,R,ugm-3
06-01-2018,08:00,1.29149,R,ugm-3,5.63645,R,ugm-3,7.61670,R,ugm-3
06-01-2018,09:00,1.80129,R,ugm-3,10.47537,R,ugm-3,13.23730,R,ugm-3
06-01-2018,10:00,2.14115,R,ugm-3,9.69161,R,ugm-3,12.97466,R,ugm-3
06-01-2018,11:00,3.16074,R,ugm-3,9.59906,R,ugm-3,14.44547,R,ugm-3
06-01-2018,12:00,3.33068,R,ugm-3,9.23345,R,ugm-3,14.34041,R,ugm-3
06-01-2018,13:00,2.92284,R,ugm-3,7.23234,R,ugm-3,11.71396,R,ugm-3
06-01-2018,14:00,2.99081,R,ugm-3,8.12617,R,ugm-3,12.71201,R,ugm-3
06-01-2018,15:00,3.02480,R,ugm-3,9.12463,R,ugm-3,13.76259,R,ugm-3
06-01-2018,16:00,3.46662,R,ugm-3,11.91409,R,ugm-3,17.22951,R,ugm-3
06-01-2018,17:00,4.04439,R,ugm-3,19.27524,R,ugm-3,25.47656,R,ugm-3
06-01-2018,18:00,3.26270,R,ugm-3,18.68783,R,ugm-3,23.69057,R,ugm-3
06-01-2018,19:00,2.99081,R,ugm-3,19.94519,R,ugm-3,24.53103,R,ugm-3
06-01-2018,20:00,10.43386,R,ugm-3,32.59095,R,ugm-3,48.58931,R,ugm-3
06-01-2018,21:00,20.42589,R,ugm-3,49.20767,R,ugm-3,80.52693,R,ugm-3
06-01-2018,22:00,12.23514,R,ugm-3,34.50410,R,ugm-3,53.26439,R,ugm-3
06-01-2018,23:00,2.85487,R,ugm-3,28.50574,R,ugm-3,32.88314,R,ugm-3
06-01-2018,24:00,18.48866,R,ugm-3,44.24617,R,ugm-3,72.59505,R,ugm-3
07-01-2018,01:00,31.82162,R,ugm-3,54.16615,R,ugm-3,102.95862,R,ugm-3
07-01-2018,02:00,22.57431,R,ugm-3,57.70634,R,ugm-3,92.31980,R,ugm-3
07-01-2018,03:00,7.03747,R,ugm-3,28.21255,R,ugm-3,39.00319,R,ugm-3
07-01-2018,04:00,1.59788,R,ugm-3,13.56068,R,ugm-3,16.01073,R,ugm-3
07-01-2018,05:00,1.12192,R,ugm-3,8.20116,R,ugm-3,9.92140,R,ugm-3
07-01-2018,06:00,1.01992,R,ugm-3,9.19745,R,ugm-3,10.76131,R,ugm-3
07-01-2018,07:00,1.05392,R,ugm-3,7.04555,R,ugm-3,8.66154,R,ugm-3
07-01-2018,08:00,1.25791,R,ugm-3,13.24206,R,ugm-3,15.17082,R,ugm-3
07-01-2018,09:00,1.46189,R,ugm-3,14.87158,R,ugm-3,17.11311,R,ugm-3
07-01-2018,10:00,2.27783,R,ugm-3,12.99056,R,ugm-3,16.48318,R,ugm-3
07-01-2018,11:00,5.23561,R,ugm-3,16.90692,R,ugm-3,24.93475,R,ugm-3
07-01-2018,12:00,6.62950,R,ugm-3,19.23165,R,ugm-3,29.39675,R,ugm-3
07-01-2018,13:00,6.49351,R,ugm-3,12.66842,R,ugm-3,22.62500,R,ugm-3
07-01-2018,14:00,5.91556,R,ugm-3,15.60188,R,ugm-3,24.67227,R,ugm-3
07-01-2018,15:00,3.97770,R,ugm-3,18.15326,R,ugm-3,24.25232,R,ugm-3
07-01-2018,16:00,13.12302,R,ugm-3,33.84236,R,ugm-3,53.96404,R,ugm-3
07-01-2018,17:00,6.79949,R,ugm-3,34.24682,R,ugm-3,44.67256,R,ugm-3
07-01-2018,18:00,4.11369,R,ugm-3,26.71128,R,ugm-3,33.01885,R,ugm-3
07-01-2018,19:00,2.27783,R,ugm-3,27.21648,R,ugm-3,30.70911,R,ugm-3
07-01-2018,20:00,2.03985,R,ugm-3,28.47379,R,ugm-3,31.60151,R,ugm-3
07-01-2018,21:00,1.83586,R,ugm-3,18.76017,R,ugm-3,21.57512,R,ugm-3
07-01-2018,22:00,1.22391,R,ugm-3,9.09466,R,ugm-3,10.97129,R,ugm-3
07-01-2018,23:00,1.52989,R,ugm-3,8.46801,R,ugm-3,10.81381,R,ugm-3
07-01-2018,24:00,1.59788,R,ugm-3,11.93336,R,ugm-3,14.38341,R,ugm-3
08-01-2018,01:00,1.76844,R,ugm-3,9.94864,R,ugm-3,12.66021,R,ugm-3
08-01-2018,02:00,2.13119,R,ugm-3,12.40009,R,ugm-3,15.66788,R,ugm-3
08-01-2018,03:00,1.12228,R,ugm-3,6.67271,R,ugm-3,8.39351,R,ugm-3
08-01-2018,04:00,1.39435,R,ugm-3,6.30800,R,ugm-3,8.44597,R,ugm-3
08-01-2018,05:00,1.46236,R,ugm-3,6.57093,R,ugm-3,8.81318,R,ugm-3
08-01-2018,06:00,1.32633,R,ugm-3,10.81888,R,ugm-3,12.85256,R,ugm-3
08-01-2018,07:00,2.44861,R,ugm-3,16.18010,R,ugm-3,19.93458,R,ugm-3
08-01-2018,08:00,4.04700,R,ugm-3,18.13586,R,ugm-3,24.34117,R,ugm-3
08-01-2018,09:00,7.27780,R,ugm-3,20.73619,R,ugm-3,31.89533,R,ugm-3
08-01-2018,10:00,8.16202,R,ugm-3,24.62635,R,ugm-3,37.14127,R,ugm-3
08-01-2018,11:00,8.43409,R,ugm-3,22.37310,R,ugm-3,35.30519,R,ugm-3
08-01-2018,12:00,10.91670,R,ugm-3,24.07472,R,ugm-3,40.81343,R,ugm-3
08-01-2018,13:00,12.10700,R,ugm-3,27.18081,R,ugm-3,45.74461,R,ugm-3
08-01-2018,14:00,9.52236,R,ugm-3,23.53725,R,ugm-3,38.13800,R,ugm-3
08-01-2018,15:00,14.18151,R,ugm-3,31.08196,R,ugm-3,52.82663,R,ugm-3
08-01-2018,16:00,11.15476,R,ugm-3,30.89664,R,ugm-3,48.00037,R,ugm-3
08-01-2018,17:00,11.22278,R,ugm-3,31.42186,R,ugm-3,48.62988,R,ugm-3
08-01-2018,18:00,15.09974,R,ugm-3,32.13962,R,ugm-3,55.29222,R,ugm-3
08-01-2018,19:00,10.84868,R,ugm-3,25.43804,R,ugm-3,42.07245,R,ugm-3
08-01-2018,20:00,6.52962,R,ugm-3,29.12279,R,ugm-3,39.13472,R,ugm-3
08-01-2018,21:00,5.10126,R,ugm-3,27.58828,R,ugm-3,35.41011,R,ugm-3
08-01-2018,22:00,2.85671,R,ugm-3,18.64946,R,ugm-3,23.02968,R,ugm-3
08-01-2018,23:00,3.43485,R,ugm-3,17.60561,R,ugm-3,22.87231,R,ugm-3
08-01-2018,24:00,2.10852,R,ugm-3,16.54418,R,ugm-3,19.77720,R,ugm-3
09-01-2018,01:00,2.26796,R,ugm-3,14.06729,R,ugm-3,17.54478,R,ugm-3
09-01-2018,02:00,1.90509,R,ugm-3,14.55379,R,ugm-3,17.47488,R,ugm-3
09-01-2018,03:00,1.49685,R,ugm-3,9.13343,R,ugm-3,11.42857,R,ugm-3
09-01-2018,04:00,1.36077,R,ugm-3,8.92268,R,ugm-3,11.00917,R,ugm-3
09-01-2018,05:00,2.31332,R,ugm-3,11.76096,R,ugm-3,15.30799,R,ugm-3
09-01-2018,06:00,4.01429,R,ugm-3,18.69413,R,ugm-3,24.84928,R,ugm-3
09-01-2018,07:00,5.74927,R,ugm-3,22.32480,R,ugm-3,31.14023,R,ugm-3
09-01-2018,08:00,9.66150,R,ugm-3,28.22653,R,ugm-3,43.04063,R,ugm-3
09-01-2018,09:00,15.92107,R,ugm-3,32.41635,R,ugm-3,56.82830,R,ugm-3
09-01-2018,10:00,15.10460,R,ugm-3,31.46641,R,ugm-3,54.62647,R,ugm-3
09-01-2018,11:00,14.35617,R,ugm-3,28.83940,R,ugm-3,50.85190,R,ugm-3
09-01-2018,12:00,20.13947,R,ugm-3,30.61401,R,ugm-3,61.49410,R,ugm-3
09-01-2018,13:00,34.66574,R,ugm-3,36.59759,R,ugm-3,89.75098,R,ugm-3
09-01-2018,14:00,38.57797,R,ugm-3,37.25685,R,ugm-3,96.40891,R,ugm-3
09-01-2018,15:00,41.06138,R,ugm-3,37.17115,R,ugm-3,100.13105,R,ugm-3
09-01-2018,16:00,28.91646,R,ugm-3,38.17842,R,ugm-3,82.51638,R,ugm-3
09-01-2018,17:00,50.92700,R,ugm-3,44.37698,R,ugm-3,122.46395,R,ugm-3
09-01-2018,18:00,57.79891,R,ugm-3,46.73665,R,ugm-3,135.36041,R,ugm-3
09-01-2018,19:00,40.82324,R,ugm-3,45.71453,R,ugm-3,108.30930,R,ugm-3
09-01-2018,20:00,24.39189,R,ugm-3,42.70447,R,ugm-3,80.10484,R,ugm-3
09-01-2018,21:00,14.93450,R,ugm-3,38.28030,R,ugm-3,61.17955,R,ugm-3
09-01-2018,22:00,8.19867,R,ugm-3,32.35680,R,ugm-3,44.92791,R,ugm-3
09-01-2018,23:00,7.34818,R,ugm-3,31.45902,R,ugm-3,42.72608,R,ugm-3
09-01-2018,24:00,4.35448,R,ugm-3,24.77801,R,ugm-3,31.45478,R,ugm-3
10-01-2018,01:00,4.12901,R,ugm-3,24.95469,R,ugm-3,31.28576,R,ugm-3
10-01-2018,02:00,3.31229,R,ugm-3,27.60057,R,ugm-3,32.67933,R,ugm-3
10-01-2018,03:00,1.90570,R,ugm-3,25.14109,R,ugm-3,28.06312,R,ugm-3
10-01-2018,04:00,2.17794,R,ugm-3,24.93269,R,ugm-3,28.27215,R,ugm-3
10-01-2018,05:00,2.68840,R,ugm-3,23.73193,R,ugm-3,27.85408,R,ugm-3
10-01-2018,06:00,5.78516,R,ugm-3,23.94824,R,ugm-3,32.81869,R,ugm-3
10-01-2018,07:00,14.93931,R,ugm-3,31.12924,R,ugm-3,54.03587,R,ugm-3
10-01-2018,08:00,46.24721,R,ugm-3,42.54302,R,ugm-3,113.45443,R,ugm-3
10-01-2018,09:00,111.21111,R,ugm-3,62.24055,R,ugm-3,232.76186,R,ugm-3
10-01-2018,10:00,57.98768,R,ugm-3,61.69742,R,ugm-3,150.61062,R,ugm-3
10-01-2018,11:00,49.07173,R,ugm-3,56.76412,R,ugm-3,132.00639,R,ugm-3
10-01-2018,12:00,25.76096,R,ugm-3,46.10076,R,ugm-3,85.60034,R,ugm-3
10-01-2018,13:00,11.12792,R,ugm-3,34.98746,R,ugm-3,52.05003,R,ugm-3
10-01-2018,14:00,20.38417,R,ugm-3,44.20680,R,ugm-3,75.46209,R,ugm-3
10-01-2018,15:00,,,,,,,,,
10-01-2018,16:00,55.57152,R,ugm-3,50.14161,R,ugm-3,135.35008,R,ugm-3
10-01-2018,17:00,15.07543,R,ugm-3,52.47995,R,ugm-3,75.59530,R,ugm-3
10-01-2018,18:00,35.66378,R,ugm-3,71.72669,R,ugm-3,126.41039,R,ugm-3
10-01-2018,19:00,35.25542,R,ugm-3,71.20270,R,ugm-3,125.26026,R,ugm-3
10-01-2018,20:00,52.30461,R,ugm-3,68.74332,R,ugm-3,148.94260,R,ugm-3
10-01-2018,21:00,86.30091,R,ugm-3,68.99985,R,ugm-3,201.32606,R,ugm-3
10-01-2018,22:00,45.90691,R,ugm-3,59.10524,R,ugm-3,129.49485,R,ugm-3
10-01-2018,23:00,55.43540,R,ugm-3,55.57821,R,ugm-3,140.57798,R,ugm-3
10-01-2018,24:00,72.45056,R,ugm-3,59.44447,R,ugm-3,170.53379,R,ugm-3
11-01-2018,01:00,58.53957,R,ugm-3,49.66776,R,ugm-3,139.42718,R,ugm-3
11-01-2018,02:00,33.40573,R,ugm-3,41.59068,R,ugm-3,92.81210,R,ugm-3
11-01-2018,03:00,25.83831,R,ugm-3,41.85369,R,ugm-3,81.47188,R,ugm-3
11-01-2018,04:00,17.18009,R,ugm-3,39.08591,R,ugm-3,65.42835,R,ugm-3
11-01-2018,05:00,23.31584,R,ugm-3,36.83738,R,ugm-3,72.58784,R,ugm-3
11-01-2018,06:00,81.02595,R,ugm-3,38.86248,R,ugm-3,163.10053,R,ugm-3
11-01-2018,07:00,145.34903,R,ugm-3,44.23067,R,ugm-3,267.09607,R,ugm-3
11-01-2018,08:00,255.86065,R,ugm-3,67.82686,R,ugm-3,460.14105,R,ugm-3
11-01-2018,09:00,301.26518,R,ugm-3,83.07627,R,ugm-3,545.00976,R,ugm-3
11-01-2018,10:00,308.73033,R,ugm-3,88.50953,R,ugm-3,561.88944,R,ugm-3
11-01-2018,11:00,273.21118,R,ugm-3,82.14193,R,ugm-3,501.05989,R,ugm-3
11-01-2018,12:00,210.49021,R,ugm-3,77.45275,R,ugm-3,400.19990,R,ugm-3
11-01-2018,13:00,160.00665,R,ugm-3,80.80871,R,ugm-3,326.14881,R,ugm-3
11-01-2018,14:00,,,,,,,,,
11-01-2018,15:00,,,,,,,,,
11-01-2018,16:00,,,,,,,,,
11-01-2018,17:00,57.45507,R,ugm-3,53.31450,R,ugm-3,141.41105,R,ugm-3
11-01-2018,18:00,79.62412,R,ugm-3,59.53113,R,ugm-3,181.61975,R,ugm-3
11-01-2018,19:00,35.14939,R,ugm-3,50.97224,R,ugm-3,104.86721,R,ugm-3
11-01-2018,20:00,48.30052,R,ugm-3,50.12647,R,ugm-3,124.18623,R,ugm-3
11-01-2018,21:00,70.84531,R,ugm-3,52.73037,R,ugm-3,161.35833,R,ugm-3
11-01-2018,22:00,34.22710,R,ugm-3,49.50686,R,ugm-3,101.98768,R,ugm-3
11-01-2018,23:00,26.47306,R,ugm-3,46.84152,R,ugm-3,87.43297,R,ugm-3
11-01-2018,24:00,33.40729,R,ugm-3,42.12530,R,ugm-3,93.34909,R,ugm-3
12-01-2018,01:00,38.19647,R,ugm-3,39.33154,R,ugm-3,97.89864,R,ugm-3
12-01-2018,02:00,47.34723,R,ugm-3,43.27768,R,ugm-3,115.87576,R,ugm-3
12-01-2018,03:00,53.23149,R,ugm-3,39.41150,R,ugm-3,121.03199,R,ugm-3
12-01-2018,04:00,52.68518,R,ugm-3,40.40595,R,ugm-3,121.18877,R,ugm-3
12-01-2018,05:00,54.49485,R,ugm-3,37.36987,R,ugm-3,120.92747,R,ugm-3
12-01-2018,06:00,23.93539,R,ugm-3,34.84223,R,ugm-3,71.54266,R,ugm-3
12-01-2018,07:00,58.14832,R,ugm-3,42.11525,R,ugm-3,131.27477,R,ugm-3
12-01-2018,08:00,39.57364,R,ugm-3,54.29121,R,ugm-3,114.96994,R,ugm-3
12-01-2018,09:00,44.35389,R,ugm-3,59.60829,R,ugm-3,127.61663,R,ugm-3
12-01-2018,10:00,34.62266,R,ugm-3,55.82054,R,ugm-3,108.90789,R,ugm-3
12-01-2018,11:00,27.72545,R,ugm-3,40.99822,R,ugm-3,83.50998,R,ugm-3
12-01-2018,12:00,24.75486,R,ugm-3,38.65486,R,ugm-3,76.61179,R,ugm-3
12-01-2018,13:00,31.54965,R,ugm-3,36.17971,R,ugm-3,84.55516,R,ugm-3
12-01-2018,14:00,34.79339,R,ugm-3,39.09716,R,ugm-3,92.44628,R,ugm-3
12-01-2018,15:00,35.64701,R,ugm-3,44.26843,R,ugm-3,98.92641,R,ugm-3
12-01-2018,16:00,33.97392,R,ugm-3,50.28289,R,ugm-3,102.37550,R,ugm-3
12-01-2018,17:00,30.90090,R,ugm-3,48.72370,R,ugm-3,96.10442,R,ugm-3
12-01-2018,18:00,43.97830,R,ugm-3,58.92997,R,ugm-3,126.36241,R,ugm-3
12-01-2018,19:00,30.76432,R,ugm-3,50.76218,R,ugm-3,97.93348,R,ugm-3
12-01-2018,20:00,22.09158,R,ugm-3,45.45597,R,ugm-3,79.32926,R,ugm-3
12-01-2018,21:00,11.09701,R,ugm-3,38.06588,R,ugm-3,55.08105,R,ugm-3
12-01-2018,22:00,11.77990,R,ugm-3,36.75750,R,ugm-3,54.81976,R,ugm-3
12-01-2018,23:00,8.50202,R,ugm-3,33.78788,R,ugm-3,46.82412,R,ugm-3
12-01-2018,24:00,8.94590,R,ugm-3,32.74146,R,ugm-3,46.45831,R,ugm-3
13-01-2018,01:00,7.20518,R,ugm-3,32.64079,R,ugm-3,43.68858,R,ugm-3
13-01-2018,02:00,3.19217,R,ugm-3,26.66989,R,ugm-3,31.56447,R,ugm-3
13-01-2018,03:00,1.88110,R,ugm-3,21.25938,R,ugm-3,24.14369,R,ugm-3
13-01-2018,04:00,1.84690,R,ugm-3,17.23561,R,ugm-3,20.06748,R,ugm-3
13-01-2018,05:00,1.33387,R,ugm-3,11.80341,R,ugm-3,13.84865,R,ugm-3
13-01-2018,06:00,1.94950,R,ugm-3,10.70268,R,ugm-3,13.69187,R,ugm-3
13-01-2018,07:00,2.87295,R,ugm-3,11.37711,R,ugm-3,15.78224,R,ugm-3
13-01-2018,08:00,5.54069,R,ugm-3,13.66223,R,ugm-3,22.15784,R,ugm-3
13-01-2018,09:00,6.42994,R,ugm-3,17.10658,R,ugm-3,26.96568,R,ugm-3
13-01-2018,10:00,14.46736,R,ugm-3,19.10168,R,ugm-3,41.28466,R,ugm-3
13-01-2018,11:00,14.43316,R,ugm-3,20.46060,R,ugm-3,42.59114,R,ugm-3
13-01-2018,12:00,14.33055,R,ugm-3,15.81009,R,ugm-3,37.78330,R,ugm-3
13-01-2018,13:00,10.43155,R,ugm-3,18.18261,R,ugm-3,34.17743,R,ugm-3
13-01-2018,14:00,14.36476,R,ugm-3,20.61775,R,ugm-3,42.64340,R,ugm-3
13-01-2018,15:00,18.60578,R,ugm-3,28.27714,R,ugm-3,56.80560,R,ugm-3
13-01-2018,16:00,22.53898,R,ugm-3,35.62463,R,ugm-3,70.18392,R,ugm-3
13-01-2018,17:00,17.54552,R,ugm-3,39.46625,R,ugm-3,66.36901,R,ugm-3
13-01-2018,18:00,19.15301,R,ugm-3,38.15118,R,ugm-3,67.51871,R,ugm-3
13-01-2018,19:00,12.72307,R,ugm-3,34.94551,R,ugm-3,54.45394,R,ugm-3
13-01-2018,20:00,16.07484,R,ugm-3,33.46433,R,ugm-3,58.11208,R,ugm-3
13-01-2018,21:00,9.23449,R,ugm-3,29.11116,R,ugm-3,43.27050,R,ugm-3
13-01-2018,22:00,11.93643,R,ugm-3,27.89475,R,ugm-3,46.19701,R,ugm-3
13-01-2018,23:00,10.12373,R,ugm-3,28.94962,R,ugm-3,44.47246,R,ugm-3
13-01-2018,24:00,9.33709,R,ugm-3,25.87055,R,ugm-3,40.18722,R,ugm-3
14-01-2018,01:00,5.39008,R,ugm-3,22.46366,R,ugm-3,30.72833,R,ugm-3
14-01-2018,02:00,1.41604,R,ugm-3,21.44987,R,ugm-3,23.62110,R,ugm-3
14-01-2018,03:00,2.87775,R,ugm-3,18.00665,R,ugm-3,22.41914,R,ugm-3
14-01-2018,04:00,3.08331,R,ugm-3,18.57987,R,ugm-3,23.30754,R,ugm-3
14-01-2018,05:00,1.74721,R,ugm-3,17.59750,R,ugm-3,20.27652,R,ugm-3
14-01-2018,06:00,2.87775,R,ugm-3,15.60273,R,ugm-3,20.01522,R,ugm-3
14-01-2018,07:00,3.63145,R,ugm-3,17.42584,R,ugm-3,22.99399,R,ugm-3
14-01-2018,08:00,5.03607,R,ugm-3,18.66897,R,ugm-3,26.39083,R,ugm-3
14-01-2018,09:00,4.31663,R,ugm-3,20.50372,R,ugm-3,27.12245,R,ugm-3
14-01-2018,10:00,5.75550,R,ugm-3,19.76073,R,ugm-3,28.58571,R,ugm-3
14-01-2018,11:00,8.90733,R,ugm-3,22.29652,R,ugm-3,35.95424,R,ugm-3
14-01-2018,12:00,8.66752,R,ugm-3,21.67131,R,ugm-3,34.96131,R,ugm-3
14-01-2018,13:00,10.65454,R,ugm-3,25.62730,R,ugm-3,41.96403,R,ugm-3
14-01-2018,14:00,12.57304,R,ugm-3,23.05145,R,ugm-3,42.32984,R,ugm-3
14-01-2018,15:00,9.83232,R,ugm-3,23.70021,R,ugm-3,38.77622,R,ugm-3
14-01-2018,16:00,7.84530,R,ugm-3,23.71591,R,ugm-3,35.74520,R,ugm-3
14-01-2018,17:00,9.18140,R,ugm-3,24.59376,R,ugm-3,38.67171,R,ugm-3
14-01-2018,18:00,8.56474,R,ugm-3,25.38251,R,ugm-3,38.51493,R,ugm-3
14-01-2018,19:00,7.05734,R,ugm-3,24.40150,R,ugm-3,35.22261,R,ugm-3
14-01-2018,20:00,6.54346,R,ugm-3,24.40556,R,ugm-3,34.43872,R,ugm-3
14-01-2018,21:00,5.44717,R,ugm-3,21.27867,R,ugm-3,29.63089,R,ugm-3
14-01-2018,22:00,3.25460,R,ugm-3,17.84689,R,ugm-3,22.83721,R,ugm-3
14-01-2018,23:00,2.94627,R,ugm-3,14.19119,R,ugm-3,18.70874,R,ugm-3
14-01-2018,24:00,2.22683,R,ugm-3,12.89040,R,ugm-3,16.30483,R,ugm-3
15-01-2018,01:00,1.50991,R,ugm-3,10.64509,R,ugm-3,12.96025,R,ugm-3
15-01-2018,02:00,1.37265,R,ugm-3,11.83106,R,ugm-3,13.93575,R,ugm-3
15-01-2018,03:00,1.06380,R,ugm-3,5.63287,R,ugm-3,7.26401,R,ugm-3
15-01-2018,04:00,1.09812,R,ugm-3,3.54215,R,ugm-3,5.22591,R,ugm-3
15-01-2018,05:00,1.23538,R,ugm-3,3.64524,R,ugm-3,5.53946,R,ugm-3
15-01-2018,06:00,1.95602,R,ugm-3,5.78034,R,ugm-3,8.77952,R,ugm-3
15-01-2018,07:00,3.08845,R,ugm-3,11.30798,R,ugm-3,16.04353,R,ugm-3
15-01-2018,08:00,8.54471,R,ugm-3,22.64349,R,ugm-3,35.74520,R,ugm-3
15-01-2018,09:00,10.12325,R,ugm-3,26.44192,R,ugm-3,41.96403,R,ugm-3
15-01-2018,10:00,7.82407,R,ugm-3,19.30643,R,ugm-3,31.30318,R,ugm-3
15-01-2018,11:00,11.29000,R,ugm-3,15.40308,R,ugm-3,32.71417,R,ugm-3
15-01-2018,12:00,11.11842,R,ugm-3,17.70427,R,ugm-3,34.75228,R,ugm-3
15-01-2018,13:00,14.17255,R,ugm-3,20.02405,R,ugm-3,41.75499,R,ugm-3
15-01-2018,14:00,16.05994,R,ugm-3,20.84049,R,ugm-3,45.46538,R,ugm-3
15-01-2018,15:00,12.49107,R,ugm-3,17.53316,R,ugm-3,36.68586,R,ugm-3
15-01-2018,16:00,12.38812,R,ugm-3,16.80261,R,ugm-3,35.79746,R,ugm-3
15-01-2018,17:00,18.08459,R,ugm-3,24.73878,R,ugm-3,52.46810,R,ugm-3
15-01-2018,18:00,15.81973,R,ugm-3,26.69601,R,ugm-3,50.95259,R,ugm-3
15-01-2018,19:00,6.62301,R,ugm-3,18.95316,R,ugm-3,29.10830,R,ugm-3